{"data":{"norad_id":59713,"epoch":"2026-09-21T19:22:14.125152Z","epoch_age_seconds":58231,"freshness":"FRESH","line1":"1 59713U 24088F   26264.80710793 -.00000022  00000+0  46764-5 0  9998","line2":"2 59713  53.1593  79.5596 0000949  91.0365 269.0762 15.69712253137071","mean_motion":15.69712253,"eccentricity":9.49e-5,"inclination_deg":53.1593,"raan_deg":79.5596,"arg_perigee_deg":91.0365,"mean_anomaly_deg":269.0762,"bstar":4.6764e-6,"rev_number":13707,"period_min":91.73655854746,"perigee_km":359.08088054582,"apogee_km":360.35972586197,"semimajor_km":6737.8573032039,"source":"CELESTRAK","updated_at":"2026-09-22T09:00:49.058231Z"}}